�������l�o���
Date,Time,MP-1(��Sv/h),MP-2(��Sv/h),MP-3(��Sv/h),MP-4(��Sv/h),MP-5(��Sv/h),MP-6(��Sv/h),MP-7(��Sv/h),MP-8(��Sv/h),����,����(m/s),���J
2017/07/08,00:00,0.991,1.568,1.043,1.856,1.294,0.532,0.966,0.891,��,2.6,��
2017/07/08,00:10,0.995,1.568,1.044,1.855,1.292,0.534,0.965,0.891,��,3.0,��
2017/07/08,00:20,0.993,1.568,1.045,1.855,1.291,0.534,0.965,0.890,��,3.2,��
2017/07/08,00:30,0.992,1.569,1.042,1.854,1.290,0.533,0.966,0.888,���k��,2.0,��
2017/07/08,00:40,0.993,1.567,1.044,1.856,1.290,0.534,0.966,0.892,���k��,2.2,��
2017/07/08,00:50,0.990,1.566,1.043,1.856,1.290,0.533,0.965,0.890,���k��,2.5,��
2017/07/08,01:00,0.995,1.567,1.041,1.854,1.293,0.534,0.965,0.890,���k��,2.3,��
2017/07/08,01:10,0.993,1.573,1.043,1.855,1.290,0.532,0.965,0.890,���k��,2.8,��
2017/07/08,01:20,0.993,1.567,1.043,1.852,1.290,0.533,0.965,0.888,���k��,3.0,��
2017/07/08,01:30,0.991,1.568,1.041,1.852,1.291,0.532,0.966,0.889,���k��,2.6,��
2017/07/08,01:40,0.991,1.569,1.043,1.853,1.288,0.533,0.967,0.890,���k��,2.6,��
2017/07/08,01:50,0.993,1.566,1.042,1.857,1.288,0.533,0.966,0.890,���k��,3.5,��
2017/07/08,02:00,0.990,1.565,1.043,1.855,1.289,0.533,0.965,0.891,���k��,3.3,��
2017/07/08,02:10,0.990,1.567,1.042,1.852,1.290,0.532,0.965,0.892,���k��,2.8,��
2017/07/08,02:20,0.993,1.566,1.041,1.853,1.289,0.531,0.964,0.889,���k��,2.2,��
2017/07/08,02:30,0.991,1.567,1.042,1.853,1.287,0.532,0.962,0.890,���k��,2.5,��
2017/07/08,02:40,0.989,1.567,1.041,1.854,1.290,0.533,0.965,0.891,���k��,2.0,��
2017/07/08,02:50,0.991,1.566,1.042,1.853,1.289,0.533,0.963,0.890,���k��,2.3,��
2017/07/08,03:00,0.989,1.565,1.041,1.855,1.288,0.532,0.965,0.890,���k��,1.7,��
2017/07/08,03:10,0.989,1.567,1.044,1.854,1.288,0.532,0.965,0.889,���k��,1.2,��
2017/07/08,03:20,0.987,1.566,1.040,1.853,1.290,0.532,0.964,0.889,�k��,1.7,��
2017/07/08,03:30,0.991,1.564,1.040,1.853,1.288,0.533,0.965,0.889,���k��,2.0,��
2017/07/08,03:40,0.990,1.566,1.040,1.854,1.291,0.534,0.967,0.889,���k��,2.3,��
2017/07/08,03:50,0.989,1.567,1.042,1.854,1.289,0.534,0.966,0.890,��,2.2,��
2017/07/08,04:00,0.990,1.565,1.041,1.852,1.289,0.529,0.966,0.892,��,2.3,��
2017/07/08,04:10,0.988,1.565,1.041,1.857,1.286,0.532,0.966,0.892,��,2.5,��
2017/07/08,04:20,0.992,1.565,1.040,1.856,1.289,0.531,0.966,0.889,���k��,2.3,��
2017/07/08,04:30,0.989,1.563,1.042,1.854,1.289,0.532,0.965,0.889,�k��,2.3,��
2017/07/08,04:40,0.989,1.563,1.039,1.855,1.289,0.532,0.964,0.888,�k�k��,1.7,��
2017/07/08,04:50,0.988,1.564,1.040,1.854,1.290,0.532,0.965,0.890,�k��,2.3,��
2017/07/08,05:00,0.990,1.565,1.042,1.852,1.289,0.532,0.964,0.890,�k��,2.9,��
2017/07/08,05:10,0.989,1.564,1.042,1.852,1.290,0.532,0.965,0.891,���k��,2.6,��
2017/07/08,05:20,0.987,1.565,1.040,1.854,1.289,0.533,0.965,0.890,���k��,2.0,��
2017/07/08,05:30,0.990,1.565,1.037,1.856,1.288,0.532,0.965,0.888,��,1.2,��
2017/07/08,05:40,0.989,1.564,1.041,1.855,1.289,0.530,0.965,0.892,���k��,1.7,��
2017/07/08,05:50,0.990,1.565,1.041,1.854,1.289,0.531,0.969,0.890,�k��,1.5,��
2017/07/08,06:00,0.987,1.566,1.042,1.853,1.287,0.532,0.965,0.891,���k��,1.1,��
2017/07/08,06:10,0.989,1.567,1.040,1.857,1.287,0.530,0.967,0.890,�k��,1.5,��
2017/07/08,06:20,0.990,1.563,1.040,1.857,1.289,0.532,0.967,0.891,�k,1.9,��
2017/07/08,06:30,0.988,1.565,1.043,1.855,1.287,0.532,0.966,0.891,�k�k��,2.3,��
2017/07/08,06:40,0.989,1.563,1.039,1.852,1.289,0.534,0.967,0.892,�k�k��,2.6,��
2017/07/08,06:50,0.991,1.564,1.042,1.856,1.288,0.532,0.965,0.891,�k�k��,2.2,��
2017/07/08,07:00,0.988,1.565,1.041,1.855,1.290,0.532,0.965,0.889,�k,1.2,��
2017/07/08,07:10,0.990,1.566,1.040,1.854,1.289,0.531,0.965,0.890,�k�k��,1.4,��
2017/07/08,07:20,0.989,1.568,1.043,1.856,1.288,0.530,0.966,0.890,�k�k��,2.3,��
2017/07/08,07:30,0.991,1.567,1.041,1.856,1.289,0.531,0.965,0.892,�k,2.6,��
2017/07/08,07:40,0.990,1.568,1.041,1.857,1.289,0.530,0.964,0.891,�k,2.8,��
2017/07/08,07:50,0.991,1.566,1.043,1.858,1.288,0.531,0.965,0.891,�k�k��,2.8,��
2017/07/08,08:00,0.990,1.565,1.044,1.857,1.290,0.531,0.966,0.892,�k�k��,3.8,��
2017/07/08,08:10,0.989,1.566,1.042,1.859,1.289,0.531,0.965,0.888,�k�k��,4.2,��
2017/07/08,08:20,0.989,1.564,1.043,1.856,1.289,0.530,0.966,0.888,�k�k��,3.5,��
2017/07/08,08:30,0.988,1.565,1.039,1.856,1.290,0.530,0.964,0.888,�k�k��,4.1,��
2017/07/08,08:40,0.989,1.568,1.042,1.858,1.290,0.531,0.965,0.889,�k�k��,3.9,��
2017/07/08,08:50,0.992,1.570,1.040,1.860,1.293,0.530,0.966,0.888,�k�k��,4.4,��
2017/07/08,09:00,0.991,1.568,1.041,1.859,1.293,0.531,0.964,0.888,�k�k��,4.9,��
2017/07/08,09:10,0.988,1.568,1.041,1.859,1.293,0.530,0.966,0.889,�k�k��,5.6,��
2017/07/08,09:20,0.993,1.570,1.044,1.860,1.290,0.530,0.968,0.888,�k�k��,5.4,��
2017/07/08,09:30,0.992,1.567,1.044,1.857,1.291,0.528,0.966,0.888,�k�k��,4.8,��
2017/07/08,09:40,0.992,1.570,1.044,1.863,1.294,0.530,0.965,0.887,�k�k��,4.8,��
2017/07/08,09:50,0.993,1.567,1.043,1.860,1.293,0.529,0.965,0.888,�k�k��,5.4,��
2017/07/08,10:00,0.992,1.569,1.045,1.859,1.291,0.530,0.966,0.889,�k�k��,5.4,��
2017/07/08,10:10,0.992,1.571,1.043,1.860,1.293,0.532,0.966,0.891,�k�k��,4.2,��
2017/07/08,10:20,0.992,1.568,1.045,1.860,1.296,0.528,0.966,0.890,�k��,4.1,��
2017/07/08,10:30,0.993,1.570,1.045,1.860,1.300,0.531,0.964,0.887,�k��,4.4,��
2017/07/08,10:40,0.994,1.573,1.045,1.861,1.299,0.531,0.966,0.890,�k�k��,3.9,��
2017/07/08,10:50,0.995,1.575,1.045,1.861,1.298,0.532,0.967,0.889,�k�k��,4.3,��
2017/07/08,11:00,0.993,1.573,1.045,1.863,1.296,0.530,0.966,0.889,�k��,3.9,��
2017/07/08,11:10,0.995,1.575,1.045,1.859,1.299,0.530,0.968,0.889,�k��,4.2,��
2017/07/08,11:20,0.996,1.574,1.045,1.859,1.299,0.531,0.968,0.890,�k��,3.2,��
2017/07/08,11:30,0.994,1.577,1.046,1.857,1.298,0.530,0.967,0.890,�k��,3.7,��
2017/07/08,11:40,0.995,1.577,1.047,1.861,1.299,0.530,0.968,0.893,�k��,3.0,��
2017/07/08,11:50,0.995,1.579,1.050,1.862,1.301,0.530,0.969,0.890,���k��,3.0,��
2017/07/08,12:00,0.997,1.576,1.047,1.863,1.298,0.531,0.969,0.890,���k��,3.6,��
2017/07/08,12:10,0.998,1.578,1.048,1.863,1.302,0.532,0.967,0.891,��,2.3,��
2017/07/08,12:20,0.995,1.580,1.046,1.863,1.302,0.531,0.967,0.890,���쓌,2.0,��
2017/07/08,12:30,0.996,1.578,1.050,1.866,1.304,0.534,0.968,0.890,��,2.0,��
2017/07/08,12:40,0.997,1.579,1.049,1.861,1.301,0.533,0.969,0.889,��,2.3,��
2017/07/08,12:50,0.998,1.583,1.049,1.863,1.303,0.532,0.969,0.891,��,2.3,��
2017/07/08,13:00,0.998,1.583,1.050,1.864,1.303,0.534,0.969,0.891,���k��,2.3,��
2017/07/08,13:10,0.996,1.584,1.053,1.866,1.303,0.534,0.968,0.890,��,2.5,��
2017/07/08,13:20,0.997,1.580,1.049,1.864,1.305,0.534,0.967,0.891,���쓌,2.3,��
2017/07/08,13:30,0.998,1.582,1.051,1.868,1.308,0.534,0.970,0.893,���쓌,2.3,��
2017/07/08,13:40,1.002,1.579,1.052,1.869,1.306,0.534,0.968,0.890,�쓌,1.9,��
2017/07/08,13:50,1.000,1.584,1.052,1.869,1.309,0.535,0.970,0.892,��쓌,1.9,��
2017/07/08,14:00,0.998,1.582,1.052,1.870,1.306,0.536,0.970,0.891,��쓌,2.2,��
2017/07/08,14:10,1.000,1.585,1.053,1.869,1.307,0.535,0.968,0.892,�쓌,2.0,��
2017/07/08,14:20,0.999,1.581,1.053,1.871,1.309,0.535,0.970,0.891,�쓌,2.6,��
2017/07/08,14:30,1.000,1.581,1.053,1.869,1.304,0.535,0.969,0.892,�쓌,2.5,��
2017/07/08,14:40,1.000,1.584,1.053,1.872,1.307,0.535,0.969,0.890,�쓌,2.5,��
2017/07/08,14:50,0.999,1.582,1.054,1.869,1.308,0.534,0.970,0.892,�쓌,3.1,��
2017/07/08,15:00,1.000,1.582,1.053,1.870,1.307,0.535,0.970,0.892,�쓌,3.7,��
2017/07/08,15:10,1.000,1.586,1.053,1.871,1.310,0.535,0.970,0.894,�쓌,5.1,��
2017/07/08,15:20,1.001,1.585,1.054,1.874,1.310,0.536,0.969,0.891,��쓌,5.4,��
2017/07/08,15:30,0.999,1.585,1.054,1.872,1.309,0.533,0.972,0.894,��쓌,4.5,��
2017/07/08,15:40,1.001,1.587,1.055,1.867,1.310,0.536,0.969,0.892,��쓌,4.4,��
2017/07/08,15:50,1.001,1.583,1.054,1.873,1.307,0.533,0.971,0.890,��쓌,5.7,��
2017/07/08,16:00,1.000,1.582,1.054,1.871,1.310,0.533,0.967,0.893,��쓌,5.7,��
2017/07/08,16:10,1.001,1.587,1.056,1.872,1.308,0.533,0.968,0.890,��,6.4,��
2017/07/08,16:20,1.002,1.585,1.055,1.874,1.309,0.532,0.971,0.892,��쓌,6.3,��
2017/07/08,16:30,1.002,1.587,1.055,1.873,1.309,0.532,0.969,0.892,��쓌,6.7,��
2017/07/08,16:40,1.001,1.585,1.054,1.872,1.309,0.533,0.970,0.894,��,6.7,��
2017/07/08,16:50,0.999,1.587,1.055,1.873,1.312,0.531,0.970,0.892,��,6.5,��
2017/07/08,17:00,1.000,1.588,1.058,1.874,1.311,0.532,0.971,0.891,��,7.5,��
2017/07/08,17:10,1.001,1.588,1.054,1.873,1.310,0.532,0.969,0.892,��,7.0,��
2017/07/08,17:20,1.000,1.586,1.055,1.871,1.311,0.531,0.971,0.892,��,6.8,��
2017/07/08,17:30,1.000,1.588,1.054,1.875,1.310,0.532,0.969,0.891,��,7.2,��
2017/07/08,17:40,1.001,1.587,1.055,1.875,1.311,0.533,0.970,0.891,��,7.3,��
2017/07/08,17:50,1.001,1.587,1.056,1.875,1.309,0.532,0.968,0.892,��,7.1,��
2017/07/08,18:00,1.000,1.586,1.055,1.874,1.311,0.532,0.968,0.894,��,7.5,��
2017/07/08,18:10,1.001,1.586,1.054,1.874,1.313,0.530,0.968,0.892,��,7.7,��
2017/07/08,18:20,1.000,1.589,1.053,1.871,1.313,0.531,0.969,0.893,��,6.6,��
2017/07/08,18:30,1.000,1.588,1.056,1.874,1.312,0.532,0.970,0.892,��,6.0,��
2017/07/08,18:40,1.001,1.587,1.055,1.872,1.314,0.533,0.968,0.893,��,5.3,��
2017/07/08,18:50,0.999,1.589,1.054,1.877,1.311,0.533,0.969,0.891,��,6.2,��
2017/07/08,19:00,0.998,1.587,1.055,1.873,1.312,0.531,0.970,0.892,��,6.7,��
2017/07/08,19:10,1.002,1.587,1.055,1.872,1.314,0.532,0.971,0.892,��,6.0,��
2017/07/08,19:20,1.000,1.586,1.058,1.874,1.312,0.533,0.968,0.893,��,5.4,��
2017/07/08,19:30,1.000,1.588,1.055,1.873,1.313,0.534,0.969,0.893,��쐼,4.2,��
2017/07/08,19:40,1.000,1.589,1.055,1.869,1.313,0.533,0.970,0.892,��쐼,2.8,��
2017/07/08,19:50,1.000,1.587,1.058,1.870,1.313,0.536,0.969,0.892,��쐼,0.8,��
2017/07/08,20:00,1.002,1.589,1.057,1.874,1.311,0.534,0.969,0.893,��쐼,0.9,��
2017/07/08,20:10,1.002,1.586,1.056,1.874,1.309,0.535,0.970,0.893,��쐼,1.7,��
2017/07/08,20:20,1.000,1.590,1.057,1.873,1.310,0.533,0.970,0.892,��쐼,1.4,��
2017/07/08,20:30,1.003,1.589,1.057,1.874,1.311,0.535,0.969,0.894,�쐼,1.1,��
2017/07/08,20:40,1.003,1.589,1.055,1.878,1.311,0.534,0.968,0.893,��,1.1,��
2017/07/08,20:50,1.003,1.587,1.056,1.873,1.313,0.534,0.968,0.894,��,0.8,��
2017/07/08,21:00,1.004,1.587,1.056,1.873,1.311,0.535,0.970,0.893,��쐼,0.6,��
2017/07/08,21:10,1.002,1.588,1.056,1.875,1.313,0.534,0.969,0.894,��쐼,0.8,��
2017/07/08,21:20,1.004,1.588,1.056,1.874,1.310,0.534,0.970,0.893,��쐼,1.7,��
2017/07/08,21:30,1.004,1.587,1.056,1.875,1.312,0.535,0.970,0.894,��쐼,1.9,��
2017/07/08,21:40,1.003,1.588,1.058,1.877,1.314,0.535,0.971,0.895,��,1.4,��
2017/07/08,21:50,1.002,1.586,1.056,1.877,1.313,0.534,0.969,0.894,��,0.8,��
2017/07/08,22:00,1.002,1.587,1.056,1.875,1.313,0.534,0.968,0.894,��,1.1,��
2017/07/08,22:10,1.002,1.588,1.057,1.875,1.312,0.536,0.968,0.893,��쐼,1.1,��
2017/07/08,22:20,1.005,1.588,1.056,1.879,1.314,0.536,0.971,0.894,��쐼,0.8,��
2017/07/08,22:30,1.002,1.590,1.057,1.878,1.313,0.536,0.970,0.894,��,1.1,��
2017/07/08,22:40,1.002,1.589,1.058,1.877,1.311,0.535,0.970,0.895,�쐼,1.2,��
2017/07/08,22:50,1.003,1.588,1.061,1.875,1.312,0.536,0.970,0.895,��,0.9,��
2017/07/08,23:00,1.002,1.589,1.057,1.877,1.312,0.534,0.971,0.894,���k��,0.8,��
2017/07/08,23:10,1.003,1.590,1.058,1.877,1.311,0.535,0.971,0.895,��,0.6,��
2017/07/08,23:20,1.002,1.590,1.057,1.874,1.313,0.536,0.971,0.896,-,CALM,��
2017/07/08,23:30,1.004,1.588,1.058,1.875,1.310,0.534,0.969,0.893,�k��,0.6,��
2017/07/08,23:40,1.001,1.587,1.057,1.875,1.311,0.536,0.971,0.895,�k�k��,1.2,��
2017/07/08,23:50,1.004,1.588,1.057,1.877,1.312,0.536,0.971,0.893,�k��,0.6,��
